MARKET Weather Reports


Display with metric or nautical units.
time (UTC)temp
F
wind
direction
speed
MPH
gust
MPH
rain 1hr
in
rain 24hr
in
rain mn
in
humidity
%
barometer
mb
20260503004712 42 334 19.0 22.0 0.00 0.00 0.00 91 1008.1
20260503002712 43 334 21.0 24.0 0.00 0.00 0.00 87 1007.8
20260503000712 44 327 18.0 21.0 0.00 0.00 0.00 85 1007.7
20260502234712 45 310 15.0 16.0 0.00 0.00 0.00 79 1007.6
20260502232711 44 315 10.0 15.0 0.00 0.00 0.00 80 1007.8
20260502230711 45 337 8.0 9.0 0.00 0.00 0.00 76 1007.4
20260502224712 45 345 9.0 10.0 0.00 0.00 0.00 75 1007.4
20260502222712 43 332 11.0 13.0 0.00 0.00 0.00 84 1007.4
20260502220712 44 328 16.0 18.0 0.00 0.00 0.00 81 1007.4
20260502214711 45 314 16.0 18.0 0.00 0.00 0.00 80 1007.2
20260502212710 44 310 15.0 16.0 0.00 0.00 0.00 82 1007.0
20260502210711 46 308 12.0 14.0 0.00 0.00 0.00 77 1006.9
20260502204711 46 319 13.0 15.0 0.00 0.00 0.00 77 1006.7
20260502202710 47 315 18.0 20.0 0.00 0.00 0.00 73 1006.7
20260502200711 49 315 16.0 18.0 0.00 0.00 0.00 64 1006.4
20260502194710 51 315 15.0 17.0 0.00 0.00 0.00 58 1006.1
20260502192711 51 314 15.0 17.0 0.00 0.00 0.00 60 1006.2
20260502190710 53 299 18.0 22.0 0.00 0.00 0.00 56 1005.9
20260502184710 64 254 20.0 21.0 0.00 0.00 0.00 35 1005.6
20260502182710 65 264 21.0 23.0 0.00 0.00 0.00 35 1005.6
20260502180710 60 268 17.0 20.0 0.00 0.00 0.00 41 1005.6
20260502162709 58 221 17.0 21.0 0.00 0.00 0.00 50 1006.0
20260502160710 64 217 19.0 22.0 0.00 0.00 0.00 38 1006.2
20260502150710 56 224 9.0 12.0 0.00 0.00 0.00 52 1007.3
20260502130709 59 234 17.0 19.0 0.00 0.00 0.00 43 1008.4
20260502122709 58 247 14.0 17.0 0.00 0.00 0.00 40 1008.9
20260502120709 54 246 15.0 20.0 0.00 0.00 0.00 52 1009.2
20260502114709 56 247 13.0 17.0 0.00 0.00 0.00 46 1009.3
20260502112708 56 239 7.0 11.0 0.00 0.00 0.00 45 1009.5
20260502110708 56 237 8.0 10.0 0.00 0.00 0.00 46 1009.8
20260502104708 55 238 6.0 9.0 0.00 0.00 0.00 49 1010.0
20260502102708 54 220 4.0 5.0 0.00 0.00 0.00 53 1010.2
20260502100708 54 228 6.0 8.0 0.00 0.00 0.00 50 1010.3
20260502090708 50 197 10.0 12.0 0.00 0.00 0.00 60 1010.7
20260502070708 50 244 20.0 22.0 0.00 0.00 0.00 59 1011.3
20260502064707 48 245 19.0 21.0 0.00 0.00 0.00 65 1011.5
20260502062707 48 244 23.0 25.0 0.00 0.00 0.00 65 1011.5
20260502060708 48 246 26.0 28.0 0.00 0.00 0.00 64 1011.4
20260502054707 48 250 26.0 28.0 0.00 0.00 0.00 63 1011.4
20260502052707 48 249 26.0 27.0 0.00 0.00 0.00 64 1011.4
20260502050707 47 255 22.0 25.0 0.00 0.00 0.00 67 1011.6
20260502044707 47 256 21.0 24.0 0.00 0.00 0.00 66 1011.8
20260502042707 48 254 22.0 24.0 0.00 0.00 0.00 62 1011.7
20260502040707 48 252 23.0 25.0 0.00 0.00 0.00 65 1011.7
20260502034708 48 251 24.0 26.0 0.00 0.00 0.00 64 1011.7
20260502032706 48 252 23.0 26.0 0.00 0.00 0.00 64 1011.9
20260502030708 48 251 23.0 26.0 0.00 0.00 0.00 65 1012.0
20260502024707 49 252 25.0 27.0 0.00 0.00 0.00 63 1012.2
20260502022707 49 255 23.0 26.0 0.00 0.00 0.00 64 1012.2
20260502020707 49 253 25.0 27.0 0.00 0.00 0.00 63 1012.1
20260502014707 49 254 21.0 23.0 0.00 0.00 0.00 63 1012.5
20260502012707 50 253 23.0 26.0 0.00 0.00 0.00 61 1012.4
20260502010708 51 245 21.0 23.0 0.00 0.00 0.00 58 1012.7